Zurück zum Katalog

STARLINK-37658

AktivKommunikationSSO
NORAD 69138·PAYLOAD·🇺🇸 United States

Gestartet May 20, 2026 von Vandenberg Space Force Base

Loading…

Nächste Überflüge (nächste 24 Stunden)

TLE

AktuellSource: CelesTrak SupGP

Epoche: Sep 15, 2026, 02:51 UTC

1 69138C 26110Q   26258.11923611 -.00048514  00000+0 -15067-2 0  2586
2 69138  97.2850  93.2701 0001792  93.2238 233.3425 15.33447282    10

Verfolge STARLINK-37658 in Echtzeit mit AllMySat

Download on the App Store